TimeCST,TemperatureF,Dew PointF,Humidity,Sea Level PressureIn,VisibilityMPH,Wind Direction,Wind SpeedMPH,Gust SpeedMPH,PrecipitationIn,Events,Conditions,WindDirDegrees,DateUTC
12:55 AM,32.0,26.6,80,30.36,10.0,Calm,Calm,-,N/A,,Clear,0,2012-11-29 06:55:00
1:15 AM,32.0,28.4,87,30.36,10.0,Calm,Calm,-,N/A,,Clear,0,2012-11-29 07:15:00
1:35 AM,30.2,26.6,86,30.36,10.0,Calm,Calm,-,N/A,,Clear,0,2012-11-29 07:35:00
1:55 AM,30.2,26.6,86,30.36,10.0,Calm,Calm,-,N/A,,Clear,0,2012-11-29 07:55:00
2:15 AM,30.2,26.6,86,30.35,10.0,Calm,Calm,-,N/A,,Clear,0,2012-11-29 08:15:00
2:35 AM,30.2,26.6,86,30.35,10.0,East,3.5,-,N/A,,Clear,100,2012-11-29 08:35:00
2:55 AM,28.4,24.8,86,30.35,10.0,Calm,Calm,-,N/A,,Clear,0,2012-11-29 08:55:00
3:55 AM,30.2,26.6,86,30.35,10.0,Calm,Calm,-,N/A,,Clear,0,2012-11-29 09:55:00
4:55 AM,32.0,28.4,87,30.35,10.0,Calm,Calm,-,N/A,,Clear,0,2012-11-29 10:55:00
5:55 AM,28.4,26.6,93,30.37,10.0,Calm,Calm,-,N/A,,Partly Cloudy,0,2012-11-29 11:55:00
6:55 AM,30.2,26.6,86,30.37,10.0,Calm,Calm,-,N/A,,Partly Cloudy,0,2012-11-29 12:55:00
7:55 AM,33.8,30.2,87,30.38,10.0,Calm,Calm,-,N/A,,Scattered Clouds,0,2012-11-29 13:55:00
8:55 AM,39.2,30.2,70,30.38,10.0,ESE,3.5,-,N/A,,Scattered Clouds,110,2012-11-29 14:55:00
10:55 AM,55.4,30.2,38,30.36,10.0,Variable,6.9,-,N/A,,Scattered Clouds,0,2012-11-29 16:55:00
11:55 AM,57.2,28.4,33,30.32,10.0,SSE,6.9,-,N/A,,Mostly Cloudy,150,2012-11-29 17:55:00
12:55 PM,60.8,26.6,27,30.30,10.0,South,8.1,-,N/A,,Mostly Cloudy,170,2012-11-29 18:55:00
1:55 PM,60.8,24.8,25,30.27,10.0,Variable,4.6,-,N/A,,Mostly Cloudy,0,2012-11-29 19:55:00
2:55 PM,60.8,26.6,27,30.25,10.0,SSE,5.8,-,N/A,,Mostly Cloudy,160,2012-11-29 20:55:00
3:55 PM,59.0,28.4,31,30.24,10.0,SSE,6.9,-,N/A,,Mostly Cloudy,160,2012-11-29 21:55:00
4:55 PM,53.6,28.4,38,30.24,10.0,SE,4.6,-,N/A,,Mostly Cloudy,140,2012-11-29 22:55:00
5:55 PM,50.0,28.4,43,30.26,10.0,Calm,Calm,-,N/A,,Scattered Clouds,0,2012-11-29 23:55:00
6:55 PM,48.2,28.4,46,30.26,10.0,Calm,Calm,-,N/A,,Scattered Clouds,0,2012-11-30 00:55:00
7:55 PM,42.8,28.4,57,30.26,10.0,ESE,3.5,-,N/A,,Scattered Clouds,120,2012-11-30 01:55:00
8:55 PM,41.0,28.4,61,30.26,10.0,SE,3.5,-,N/A,,Scattered Clouds,130,2012-11-30 02:55:00
9:55 PM,44.6,28.4,53,30.25,10.0,ESE,3.5,-,N/A,,Scattered Clouds,120,2012-11-30 03:55:00
10:55 PM,44.6,28.4,53,30.27,10.0,SE,4.6,-,N/A,,Scattered Clouds,130,2012-11-30 04:55:00
11:55 PM,42.8,30.2,61,30.26,10.0,SE,4.6,-,N/A,,Scattered Clouds,140,2012-11-30 05:55:00